| time (UTC) | temp F | wind direction | speed MPH | gust MPH | rain 1hr in | rain 24hr in | rain mn in | humidity % | barometer mb |
| 20260906071647 | 61 | 122 | 2.0 | 5.0 | 0.00 | 0.00 | 0.00 | 82 | 1026.4 |
| 20260906071146 | 61 | 156 | 2.0 | 5.0 | 0.00 | 0.00 | 0.00 | 81 | 1026.4 |
| 20260906070646 | 60 | 161 | 4.0 | 4.0 | 0.00 | 0.00 | 0.00 | 84 | 1026.5 |
| 20260906070146 | 61 | 175 | 4.0 | 6.0 | 0.00 | 0.00 | 0.00 | 84 | 1026.6 |
| 20260906065646 | 60 | 171 | 6.0 | 7.0 | 0.00 | 0.00 | 0.00 | 85 | 1026.6 |
| 20260906065146 | 60 | 179 | 5.0 | 7.0 | 0.00 | 0.00 | 0.00 | 86 | 1026.7 |
| 20260906064637 | 60 | 145 | 4.0 | 6.0 | 0.00 | 0.00 | 0.00 | 86 | 1026.7 |
| 20260906064127 | 59 | 155 | 4.0 | 6.0 | 0.00 | 0.00 | 0.00 | 88 | 1026.9 |
| 20260906063617 | 59 | 177 | 5.0 | 6.0 | 0.00 | 0.00 | 0.00 | 87 | 1026.6 |
| 20260906063117 | 60 | 172 | 3.0 | 4.0 | 0.00 | 0.00 | 0.00 | 85 | 1026.7 |
| 20260906062608 | 59 | 142 | 2.0 | 3.0 | 0.00 | 0.00 | 0.00 | 87 | 1026.9 |
| 20260906062107 | 59 | 174 | 3.0 | 5.0 | 0.00 | 0.00 | 0.00 | 87 | 1026.5 |
| 20260906061608 | 59 | 175 | 2.0 | 3.0 | 0.00 | 0.00 | 0.00 | 86 | 1026.2 |
| 20260906061058 | 59 | 145 | 3.0 | 4.0 | 0.00 | 0.00 | 0.00 | 87 | 1026.5 |
| 20260906060557 | 58 | 159 | 2.0 | 3.0 | 0.00 | 0.00 | 0.00 | 88 | 1026.4 |
| 20260906060057 | 58 | 167 | 3.0 | 3.0 | 0.00 | 0.00 | 0.00 | 87 | 1026.4 |
| 20260906055557 | 58 | 160 | 2.0 | 3.0 | 0.00 | 0.00 | 0.00 | 87 | 1026.6 |
| 20260906055057 | 58 | 156 | 2.0 | 2.0 | 0.00 | 0.00 | 0.00 | 89 | 1026.3 |
| 20260906054547 | 57 | 135 | 1.0 | 2.0 | 0.00 | 0.00 | 0.00 | 90 | 1026.6 |
| 20260906054047 | 56 | 63 | 0.0 | 1.0 | 0.00 | 0.00 | 0.00 | 92 | 1026.6 |
| 20260906053547 | 55 | 143 | 0.0 | 1.0 | 0.00 | 0.00 | 0.00 | 93 | 1026.7 |
| 20260906053047 | 55 | 218 | 3.0 | 3.0 | 0.00 | 0.00 | 0.00 | 95 | 1026.4 |
| 20260906052547 | 55 | 246 | 0.0 | 0.0 | 0.00 | 0.00 | 0.00 | 95 | 1026.5 |
| 20260906052037 | 55 | 119 | 0.0 | 0.0 | 0.00 | 0.00 | 0.00 | 96 | 1026.4 |
| 20260906051537 | 55 | 273 | 0.0 | 2.0 | 0.00 | 0.00 | 0.00 | 95 | 1026.2 |
| 20260906051027 | 55 | 212 | 0.0 | 2.0 | 0.00 | 0.00 | 0.00 | 94 | 1026.2 |
| 20260906050517 | 55 | 227 | 0.0 | 1.0 | 0.00 | 0.00 | 0.00 | 94 | 1026.2 |
| 20260906050017 | 55 | 201 | 0.0 | 2.0 | 0.00 | 0.00 | 0.00 | 95 | 1026.2 |
| 20260906045517 | 55 | 123 | 1.0 | 2.0 | 0.00 | 0.00 | 0.00 | 95 | 1026.1 |
| 20260906045007 | 55 | 96 | 1.0 | 2.0 | 0.00 | 0.00 | 0.00 | 95 | 1026.0 |
| 20260906044458 | 55 | 164 | 0.0 | 2.0 | 0.00 | 0.00 | 0.00 | 95 | 1026.2 |
| 20260906043948 | 55 | 110 | 2.0 | 2.0 | 0.00 | 0.00 | 0.00 | 95 | 1026.1 |
| 20260906043448 | 55 | 110 | 3.0 | 3.0 | 0.00 | 0.00 | 0.00 | 95 | 1026.2 |
| 20260906042948 | 55 | 83 | 2.0 | 3.0 | 0.00 | 0.00 | 0.00 | 95 | 1025.8 |
| 20260906042448 | 55 | 95 | 2.0 | 2.0 | 0.00 | 0.00 | 0.00 | 96 | 1026.1 |
| 20260906041948 | 55 | 125 | 2.0 | 2.0 | 0.00 | 0.00 | 0.00 | 96 | 1026.1 |
| 20260906041448 | 55 | 150 | 1.0 | 2.0 | 0.00 | 0.00 | 0.00 | 95 | 1026.1 |
| 20260906040948 | 55 | 233 | 0.0 | 2.0 | 0.00 | 0.00 | 0.00 | 95 | 1026.1 |
| 20260906040448 | 55 | 127 | 1.0 | 2.0 | 0.00 | 0.00 | 0.00 | 95 | 1025.7 |
| 20260906035947 | 55 | 137 | 1.0 | 2.0 | 0.00 | 0.00 | 0.00 | 95 | 1025.7 |
| 20260906035447 | 55 | 45 | 1.0 | 2.0 | 0.00 | 0.03 | 0.00 | 94 | 1025.6 |
| 20260906034947 | 56 | 266 | 1.0 | 3.0 | 0.00 | 0.03 | 0.00 | 92 | 1025.8 |
| 20260906034437 | 56 | 133 | 2.0 | 3.0 | 0.00 | 0.03 | 0.00 | 93 | 1025.7 |
| 20260906033927 | 56 | 93 | 2.0 | 2.0 | 0.00 | 0.03 | 0.00 | 94 | 1025.7 |
| 20260906033427 | 55 | 94 | 1.0 | 2.0 | 0.00 | 0.03 | 0.00 | 94 | 1025.7 |
| 20260906032917 | 55 | 66 | 2.0 | 2.0 | 0.00 | 0.03 | 0.00 | 95 | 1025.7 |
| 20260906032407 | 55 | 115 | 1.0 | 2.0 | 0.00 | 0.03 | 0.00 | 94 | 1026.0 |
| 20260906031907 | 55 | 50 | 2.0 | 3.0 | 0.00 | 0.03 | 0.00 | 94 | 1025.9 |
| 20260906031407 | 55 | 32 | 0.0 | 1.0 | 0.00 | 0.03 | 0.00 | 93 | 1025.9 |
| 20260906030907 | 56 | 246 | 3.0 | 3.0 | 0.00 | 0.03 | 0.00 | 93 | 1025.6 |
| 20260906030407 | 56 | 94 | 0.0 | 2.0 | 0.00 | 0.03 | 0.00 | 92 | 1025.6 |
| 20260906025857 | 56 | 121 | 2.0 | 3.0 | 0.00 | 0.03 | 0.00 | 92 | 1025.5 |
| 20260906025357 | 56 | 93 | 2.0 | 3.0 | 0.00 | 0.03 | 0.00 | 93 | 1025.3 |
| 20260906024857 | 56 | 136 | 2.0 | 4.0 | 0.00 | 0.03 | 0.00 | 92 | 1025.5 |
| 20260906024347 | 56 | 94 | 2.0 | 2.0 | 0.00 | 0.03 | 0.00 | 92 | 1025.5 |
| 20260906023847 | 56 | 49 | 3.0 | 3.0 | 0.00 | 0.03 | 0.00 | 92 | 1025.5 |
| 20260906023347 | 56 | 130 | 3.0 | 4.0 | 0.00 | 0.03 | 0.00 | 92 | 1025.6 |
| 20260906022847 | 57 | 137 | 4.0 | 5.0 | 0.00 | 0.03 | 0.00 | 92 | 1025.3 |
| 20260906022347 | 57 | 155 | 4.0 | 5.0 | 0.00 | 0.03 | 0.00 | 92 | 1025.6 |
| 20260906021847 | 57 | 134 | 1.0 | 2.0 | 0.00 | 0.03 | 0.00 | 91 | 1025.7 |
| 20260906021337 | 57 | 138 | 2.0 | 3.0 | 0.00 | 0.03 | 0.00 | 91 | 1025.4 |
| 20260906020837 | 57 | 147 | 2.0 | 4.0 | 0.00 | 0.03 | 0.00 | 92 | 1025.4 |
| 20260906020337 | 57 | 144 | 3.0 | 3.0 | 0.00 | 0.03 | 0.00 | 92 | 1025.3 |
| 20260906015827 | 57 | 146 | 0.0 | 2.0 | 0.00 | 0.04 | 0.00 | 92 | 1025.3 |
| 20260906015317 | 57 | 158 | 1.0 | 4.0 | 0.00 | 0.04 | 0.00 | 92 | 1024.9 |
| 20260906014807 | 57 | 171 | 2.0 | 2.0 | 0.00 | 0.04 | 0.00 | 92 | 1025.3 |
| 20260906014257 | 57 | 44 | 0.0 | 2.0 | 0.00 | 0.04 | 0.00 | 92 | 1025.0 |
| 20260906013757 | 57 | 152 | 1.0 | 3.0 | 0.00 | 0.04 | 0.00 | 91 | 1024.9 |
| 20260906013257 | 58 | 212 | 1.0 | 3.0 | 0.00 | 0.04 | 0.00 | 91 | 1025.0 |
| 20260906012757 | 58 | 126 | 1.0 | 2.0 | 0.00 | 0.04 | 0.00 | 91 | 1025.0 |
| 20260906012257 | 58 | 112 | 1.0 | 1.0 | 0.00 | 0.04 | 0.00 | 90 | 1024.9 |
| 20260906011757 | 58 | 205 | 0.0 | 0.0 | 0.00 | 0.04 | 0.00 | 91 | 1024.9 |
| 20260906011257 | 58 | 168 | 2.0 | 3.0 | 0.00 | 0.04 | 0.00 | 91 | 1024.8 |
| 20260906010747 | 58 | 205 | 0.0 | 1.0 | 0.00 | 0.04 | 0.00 | 91 | 1024.3 |
| 20260906010247 | 58 | 191 | 0.0 | 2.0 | 0.00 | 0.04 | 0.00 | 91 | 1024.5 |
| 20260906005747 | 58 | 141 | 0.0 | 2.0 | 0.00 | 0.04 | 0.00 | 91 | 1024.5 |
| 20260906005247 | 58 | 161 | 0.0 | 2.0 | 0.00 | 0.04 | 0.00 | 91 | 1024.5 |
| 20260906004737 | 57 | 136 | 0.0 | 2.0 | 0.00 | 0.04 | 0.00 | 91 | 1024.6 |
| 20260906004237 | 57 | 150 | 2.0 | 3.0 | 0.00 | 0.04 | 0.00 | 92 | 1024.6 |
| 20260906003737 | 57 | 80 | 0.0 | 2.0 | 0.00 | 0.04 | 0.00 | 91 | 1024.7 |
| 20260906003237 | 58 | 247 | 2.0 | 2.0 | 0.00 | 0.04 | 0.00 | 90 | 1024.4 |
| 20260906002727 | 58 | 174 | 1.0 | 2.0 | 0.00 | 0.04 | 0.00 | 90 | 1024.3 |
| 20260906002227 | 58 | 181 | 2.0 | 2.0 | 0.00 | 0.04 | 0.00 | 90 | 1024.5 |
| 20260906001717 | 58 | 141 | 0.0 | 2.0 | 0.00 | 0.04 | 0.00 | 90 | 1024.5 |
| 20260906001217 | 58 | 117 | 2.0 | 3.0 | 0.00 | 0.04 | 0.00 | 90 | 1024.3 |
| 20260906000717 | 58 | 103 | 2.0 | 2.0 | 0.00 | 0.04 | 0.00 | 91 | 1024.3 |
| 20260906000219 | 58 | 185 | 1.0 | 3.0 | 0.00 | 0.04 | 0.00 | 90 | 1024.4 |
| 20260905235707 | 58 | 160 | 1.0 | 1.0 | 0.00 | 0.04 | 0.00 | 90 | 1024.6 |
| 20260905235207 | 58 | 40 | 0.0 | 1.0 | 0.00 | 0.04 | 0.00 | 90 | 1024.6 |
| 20260905234657 | 58 | 124 | 1.0 | 2.0 | 0.00 | 0.04 | 0.00 | 91 | 1024.5 |
| 20260905234157 | 58 | 106 | 0.0 | 2.0 | 0.00 | 0.04 | 0.00 | 91 | 1024.5 |
| 20260905233647 | 58 | 170 | 0.0 | 2.0 | 0.00 | 0.04 | 0.00 | 91 | 1024.6 |
| 20260905233147 | 59 | 205 | 3.0 | 3.0 | 0.00 | 0.04 | 0.00 | 89 | 1024.7 |
| 20260905232647 | 59 | 168 | 0.0 | 2.0 | 0.00 | 0.04 | 0.00 | 88 | 1024.7 |
| 20260905232148 | 59 | 116 | 1.0 | 2.0 | 0.00 | 0.04 | 0.00 | 88 | 1024.6 |
| 20260905231647 | 58 | 54 | 1.0 | 2.0 | 0.00 | 0.04 | 0.00 | 89 | 1024.7 |
| 20260905231138 | 58 | 93 | 2.0 | 2.0 | 0.00 | 0.04 | 0.00 | 90 | 1024.7 |
| 20260905230637 | 58 | 65 | 3.0 | 4.0 | 0.00 | 0.04 | 0.00 | 90 | 1024.9 |
| 20260905230137 | 58 | 92 | 2.0 | 3.0 | 0.00 | 0.04 | 0.00 | 90 | 1024.9 |
| 20260905225637 | 58 | 147 | 0.0 | 1.0 | 0.00 | 0.04 | 0.00 | 90 | 1024.9 |
| 20260905225137 | 59 | 133 | 0.0 | 3.0 | 0.00 | 0.04 | 0.00 | 89 | 1024.6 |
| 20260905224627 | 59 | 176 | 4.0 | 5.0 | 0.00 | 0.04 | 0.00 | 89 | 1024.9 |
| 20260905224117 | 59 | 169 | 3.0 | 4.0 | 0.00 | 0.04 | 0.00 | 89 | 1024.8 |
| 20260905223617 | 59 | 81 | 1.0 | 3.0 | 0.00 | 0.04 | 0.00 | 89 | 1024.8 |
| 20260905223117 | 59 | 349 | 1.0 | 4.0 | 0.00 | 0.04 | 0.00 | 89 | 1024.9 |
| 20260905222617 | 59 | 324 | 0.0 | 1.0 | 0.00 | 0.04 | 0.00 | 89 | 1025.0 |
| 20260905222117 | 59 | 44 | 0.0 | 1.0 | 0.00 | 0.04 | 0.00 | 89 | 1025.3 |
| 20260905221607 | 59 | 246 | 1.0 | 3.0 | 0.00 | 0.04 | 0.00 | 88 | 1025.2 |
| 20260905221107 | 59 | 165 | 4.0 | 5.0 | 0.00 | 0.04 | 0.00 | 88 | 1024.9 |
| 20260905220607 | 59 | 137 | 3.0 | 4.0 | 0.00 | 0.04 | 0.00 | 88 | 1024.9 |
| 20260905220107 | 59 | 176 | 2.0 | 2.0 | 0.00 | 0.04 | 0.00 | 88 | 1025.2 |
| 20260905215607 | 59 | 66 | 1.0 | 2.0 | 0.00 | 0.04 | 0.04 | 88 | 1025.0 |
| 20260905215107 | 59 | 32 | 1.0 | 2.0 | 0.00 | 0.04 | 0.04 | 88 | 1025.1 |
| 20260905214557 | 59 | 115 | 1.0 | 2.0 | 0.00 | 0.04 | 0.04 | 88 | 1025.2 |
| 20260905214057 | 59 | 154 | 3.0 | 3.0 | 0.00 | 0.04 | 0.04 | 88 | 1025.1 |
| 20260905213557 | 59 | 221 | 2.0 | 2.0 | 0.00 | 0.04 | 0.04 | 88 | 1024.9 |
| 20260905213057 | 59 | 80 | 0.0 | 2.0 | 0.00 | 0.04 | 0.04 | 88 | 1025.1 |
| 20260905212557 | 60 | 166 | 2.0 | 3.0 | 0.00 | 0.04 | 0.04 | 88 | 1025.2 |
| 20260905212057 | 60 | 157 | 0.0 | 2.0 | 0.00 | 0.04 | 0.04 | 87 | 1025.1 |
| 20260905211557 | 60 | 212 | 0.0 | 1.0 | 0.00 | 0.04 | 0.04 | 87 | 1024.9 |
| 20260905211047 | 60 | 130 | 2.0 | 2.0 | 0.00 | 0.04 | 0.04 | 86 | 1025.0 |
| 20260905210537 | 60 | 76 | 1.0 | 2.0 | 0.00 | 0.04 | 0.04 | 86 | 1024.9 |
| 20260905210037 | 60 | 39 | 0.0 | 2.0 | 0.00 | 0.04 | 0.04 | 87 | 1024.8 |
| 20260905205537 | 60 | 271 | 1.0 | 2.0 | 0.00 | 0.04 | 0.04 | 87 | 1024.8 |
| 20260905205037 | 60 | 219 | 3.0 | 3.0 | 0.00 | 0.04 | 0.04 | 86 | 1024.8 |
| 20260905204527 | 60 | 187 | 2.0 | 3.0 | 0.00 | 0.04 | 0.04 | 86 | 1024.8 |
| 20260905204017 | 60 | 117 | 1.0 | 2.0 | 0.00 | 0.04 | 0.04 | 86 | 1024.7 |
| 20260905203507 | 60 | 162 | 2.0 | 2.0 | 0.00 | 0.04 | 0.04 | 86 | 1024.8 |
| 20260905203007 | 60 | 256 | 0.0 | 2.0 | 0.00 | 0.04 | 0.04 | 86 | 1025.1 |
| 20260905202507 | 60 | 109 | 2.0 | 2.0 | 0.00 | 0.04 | 0.04 | 86 | 1024.9 |
| 20260905202007 | 60 | 76 | 1.0 | 2.0 | 0.00 | 0.04 | 0.04 | 86 | 1024.9 |
| 20260905201457 | 60 | 166 | 2.0 | 4.0 | 0.00 | 0.04 | 0.04 | 85 | 1024.9 |
| 20260905200957 | 61 | 258 | 2.0 | 2.0 | 0.00 | 0.04 | 0.04 | 83 | 1024.8 |
| 20260905200457 | 61 | 172 | 2.0 | 4.0 | 0.00 | 0.04 | 0.04 | 83 | 1024.7 |
| 20260905195948 | 61 | 135 | 3.0 | 3.0 | 0.00 | 0.04 | 0.04 | 82 | 1024.7 |
| 20260905195438 | 61 | 245 | 2.0 | 2.0 | 0.00 | 0.04 | 0.04 | 83 | 1024.8 |
| 20260905194938 | 61 | 76 | 1.0 | 2.0 | 0.00 | 0.04 | 0.04 | 84 | 1024.8 |
| 20260905194437 | 61 | 164 | 0.0 | 3.0 | 0.00 | 0.04 | 0.04 | 83 | 1024.5 |
| 20260905193937 | 61 | 149 | 1.0 | 3.0 | 0.00 | 0.04 | 0.04 | 83 | 1024.4 |
| 20260905193437 | 62 | 180 | 0.0 | 1.0 | 0.00 | 0.04 | 0.04 | 81 | 1024.0 |
| 20260905192927 | 62 | 72 | 1.0 | 3.0 | 0.00 | 0.04 | 0.04 | 81 | 1024.0 |
| 20260905192427 | 61 | 297 | 0.0 | 2.0 | 0.00 | 0.04 | 0.04 | 81 | 1024.1 |
| 20260905191927 | 61 | 63 | 4.0 | 5.0 | 0.00 | 0.04 | 0.04 | 83 | 1024.2 |
| 20260905191427 | 61 | 220 | 0.0 | 3.0 | 0.00 | 0.04 | 0.04 | 84 | 1024.1 |
| 20260905190927 | 61 | 340 | 0.0 | 3.0 | 0.00 | 0.04 | 0.04 | 84 | 1024.3 |
| 20260905190427 | 61 | 3 | 2.0 | 3.0 | 0.00 | 0.04 | 0.04 | 84 | 1024.1 |
| 20260905185918 | 61 | 110 | 0.0 | 2.0 | 0.00 | 0.04 | 0.04 | 82 | 1023.8 |
| 20260905185408 | 61 | 332 | 2.0 | 3.0 | 0.00 | 0.04 | 0.04 | 83 | 1023.9 |
| 20260905184908 | 61 | 304 | 2.0 | 4.0 | 0.00 | 0.04 | 0.04 | 84 | 1023.6 |
| 20260905184407 | 61 | 3 | 1.0 | 3.0 | 0.00 | 0.04 | 0.04 | 84 | 1023.6 |
| 20260905183857 | 61 | 287 | 1.0 | 2.0 | 0.00 | 0.04 | 0.04 | 83 | 1023.7 |
| 20260905183357 | 61 | 44 | 0.0 | 1.0 | 0.00 | 0.04 | 0.04 | 83 | 1023.7 |
| 20260905182857 | 61 | 255 | 3.0 | 4.0 | 0.00 | 0.04 | 0.04 | 83 | 1023.5 |
| 20260905182357 | 61 | 252 | 3.0 | 3.0 | 0.00 | 0.04 | 0.04 | 82 | 1023.6 |
| 20260905181857 | 61 | 313 | 4.0 | 4.0 | 0.00 | 0.04 | 0.04 | 81 | 1023.7 |
| 20260905181347 | 62 | 333 | 1.0 | 4.0 | 0.00 | 0.04 | 0.04 | 80 | 1023.8 |
| 20260905180847 | 62 | 328 | 2.0 | 4.0 | 0.00 | 0.04 | 0.04 | 78 | 1023.3 |
| 20260905180347 | 62 | 10 | 3.0 | 4.0 | 0.00 | 0.04 | 0.04 | 77 | 1023.7 |
| 20260905175847 | 62 | 29 | 4.0 | 4.0 | 0.00 | 0.04 | 0.04 | 77 | 1023.5 |
| 20260905175337 | 62 | 0 | 3.0 | 5.0 | 0.00 | 0.04 | 0.04 | 78 | 1023.4 |
| 20260905174837 | 62 | 0 | 4.0 | 5.0 | 0.00 | 0.04 | 0.04 | 79 | 1023.6 |
| 20260905174327 | 61 | 356 | 4.0 | 4.0 | 0.00 | 0.04 | 0.04 | 80 | 1023.6 |
| 20260905173827 | 62 | 276 | 4.0 | 4.0 | 0.00 | 0.04 | 0.04 | 80 | 1023.5 |
| 20260905173327 | 62 | 55 | 1.0 | 6.0 | 0.00 | 0.04 | 0.04 | 78 | 1023.4 |
| 20260905172827 | 63 | 327 | 3.0 | 4.0 | 0.00 | 0.04 | 0.04 | 75 | 1023.4 |
| 20260905172327 | 64 | 311 | 2.0 | 4.0 | 0.00 | 0.04 | 0.04 | 72 | 1023.1 |
| 20260905171827 | 64 | 19 | 2.0 | 4.0 | 0.00 | 0.04 | 0.04 | 70 | 1023.4 |
| 20260905171327 | 65 | 26 | 1.0 | 5.0 | 0.00 | 0.04 | 0.04 | 70 | 1023.2 |
| 20260905170827 | 64 | 356 | 2.0 | 6.0 | 0.00 | 0.04 | 0.04 | 68 | 1023.2 |
| 20260905170327 | 64 | 335 | 2.0 | 5.0 | 0.00 | 0.04 | 0.04 | 71 | 1023.3 |
| 20260905165817 | 65 | 16 | 3.0 | 5.0 | 0.00 | 0.04 | 0.04 | 71 | 1023.3 |
| 20260905165317 | 65 | 338 | 3.0 | 6.0 | 0.00 | 0.04 | 0.04 | 71 | 1023.3 |
| 20260905164808 | 66 | 359 | 3.0 | 5.0 | 0.00 | 0.04 | 0.04 | 66 | 1023.0 |
| 20260905164307 | 65 | 296 | 3.0 | 5.0 | 0.00 | 0.04 | 0.04 | 72 | 1023.1 |
| 20260905163807 | 66 | 283 | 4.0 | 5.0 | 0.00 | 0.04 | 0.04 | 70 | 1023.0 |
| 20260905163257 | 66 | 300 | 3.0 | 6.0 | 0.00 | 0.04 | 0.04 | 67 | 1023.0 |
| 20260905162757 | 66 | 274 | 4.0 | 6.0 | 0.00 | 0.04 | 0.04 | 69 | 1023.0 |
| 20260905162247 | 65 | 279 | 4.0 | 6.0 | 0.00 | 0.04 | 0.04 | 72 | 1022.8 |
| 20260905161747 | 64 | 346 | 2.0 | 6.0 | 0.00 | 0.04 | 0.04 | 71 | 1023.0 |
| 20260905161247 | 66 | 306 | 4.0 | 7.0 | 0.00 | 0.04 | 0.04 | 66 | 1022.8 |
| 20260905160747 | 66 | 332 | 4.0 | 8.0 | 0.00 | 0.04 | 0.04 | 68 | 1022.6 |
| 20260905160247 | 67 | 358 | 4.0 | 6.0 | 0.00 | 0.04 | 0.04 | 66 | 1022.4 |
| 20260905155737 | 66 | 281 | 4.0 | 7.0 | 0.00 | 0.04 | 0.04 | 66 | 1022.6 |
| 20260905155237 | 66 | 265 | 6.0 | 8.0 | 0.00 | 0.04 | 0.04 | 66 | 1022.7 |
| 20260905154728 | 67 | 289 | 6.0 | 9.0 | 0.00 | 0.04 | 0.04 | 64 | 1022.5 |
| 20260905154228 | 66 | 287 | 6.0 | 8.0 | 0.00 | 0.04 | 0.04 | 66 | 1022.7 |
| 20260905153728 | 65 | 300 | 7.0 | 9.0 | 0.00 | 0.04 | 0.04 | 67 | 1022.8 |
| 20260905153228 | 65 | 300 | 6.0 | 12.0 | 0.00 | 0.04 | 0.04 | 66 | 1022.9 |
| 20260905152728 | 65 | 323 | 1.0 | 10.0 | 0.00 | 0.04 | 0.04 | 66 | 1022.7 |
| 20260905152228 | 63 | 294 | 5.0 | 9.0 | 0.00 | 0.04 | 0.04 | 72 | 1023.1 |
| 20260905151718 | 63 | 352 | 6.0 | 11.0 | 0.00 | 0.04 | 0.04 | 74 | 1023.2 |
| 20260905151218 | 62 | 10 | 4.0 | 10.0 | 0.00 | 0.04 | 0.04 | 77 | 1023.3 |
| 20260905150708 | 62 | 294 | 3.0 | 9.0 | 0.00 | 0.04 | 0.04 | 77 | 1023.1 |
| 20260905150207 | 62 | 326 | 3.0 | 7.0 | 0.00 | 0.04 | 0.04 | 78 | 1023.2 |
| 20260905145657 | 64 | 335 | 8.0 | 11.0 | 0.00 | 0.04 | 0.04 | 74 | 1022.8 |
| 20260905145157 | 64 | 356 | 5.0 | 6.0 | 0.00 | 0.04 | 0.04 | 70 | 1023.0 |
| 20260905144648 | 65 | 286 | 13.0 | 13.0 | 0.00 | 0.04 | 0.04 | 69 | 1023.0 |
| 20260905144148 | 65 | 299 | 4.0 | 12.0 | 0.00 | 0.04 | 0.04 | 69 | 1022.6 |
| 20260905143648 | 65 | 20 | 10.0 | 18.0 | 0.00 | 0.04 | 0.04 | 68 | 1022.4 |
| 20260905143148 | 64 | 344 | 11.0 | 19.0 | 0.00 | 0.04 | 0.04 | 71 | 1022.1 |
| 20260905142648 | 64 | 311 | 17.0 | 20.0 | 0.00 | 0.04 | 0.04 | 73 | 1022.5 |
| 20260905142148 | 64 | 335 | 5.0 | 12.0 | 0.00 | 0.04 | 0.04 | 73 | 1022.3 |
| 20260905141638 | 66 | 331 | 13.0 | 15.0 | 0.00 | 0.04 | 0.04 | 68 | 1022.1 |
| 20260905141138 | 67 | 271 | 8.0 | 18.0 | 0.00 | 0.04 | 0.04 | 65 | 1022.2 |
| 20260905140628 | 68 | 289 | 11.0 | 20.0 | 0.00 | 0.04 | 0.04 | 64 | 1021.8 |
| 20260905140127 | 67 | 301 | 7.0 | 17.0 | 0.00 | 0.04 | 0.04 | 65 | 1021.6 |
| 20260905135627 | 68 | 315 | 8.0 | 16.0 | 0.00 | 0.04 | 0.04 | 63 | 1021.4 |
| 20260905135117 | 69 | 342 | 10.0 | 18.0 | 0.00 | 0.04 | 0.04 | 62 | 1021.0 |
| 20260905134617 | 69 | 340 | 8.0 | 15.0 | 0.00 | 0.04 | 0.04 | 63 | 1021.1 |
| 20260905134107 | 69 | 352 | 8.0 | 18.0 | 0.00 | 0.04 | 0.04 | 61 | 1020.7 |
| 20260905133607 | 69 | 4 | 8.0 | 16.0 | 0.00 | 0.04 | 0.04 | 62 | 1020.6 |
| 20260905133057 | 70 | 354 | 15.0 | 16.0 | 0.00 | 0.04 | 0.04 | 60 | 1020.7 |
| 20260905132557 | 69 | 327 | 8.0 | 19.0 | 0.00 | 0.04 | 0.04 | 60 | 1020.5 |
| 20260905132057 | 71 | 0 | 9.0 | 19.0 | 0.00 | 0.04 | 0.04 | 58 | 1020.2 |
| 20260905131557 | 71 | 340 | 9.0 | 20.0 | 0.00 | 0.04 | 0.04 | 57 | 1020.4 |
| 20260905131057 | 71 | 333 | 9.0 | 15.0 | 0.00 | 0.04 | 0.04 | 56 | 1019.9 |
| 20260905130557 | 73 | 4 | 13.0 | 17.0 | 0.00 | 0.04 | 0.04 | 53 | 1019.8 |
| 20260905130057 | 74 | 39 | 5.0 | 14.0 | 0.00 | 0.04 | 0.04 | 51 | 1020.1 |
| 20260905125557 | 74 | 339 | 7.0 | 9.0 | 0.00 | 0.04 | 0.04 | 50 | 1019.7 |
| 20260905125057 | 74 | 345 | 9.0 | 10.0 | 0.00 | 0.04 | 0.04 | 50 | 1019.5 |
| 20260905124548 | 74 | 330 | 11.0 | 14.0 | 0.00 | 0.04 | 0.04 | 51 | 1019.7 |
| 20260905124048 | 73 | 284 | 11.0 | 14.0 | 0.00 | 0.04 | 0.04 | 52 | 1019.6 |
| 20260905123548 | 74 | 306 | 9.0 | 16.0 | 0.00 | 0.04 | 0.04 | 51 | 1019.8 |
| 20260905123038 | 73 | 304 | 5.0 | 10.0 | 0.00 | 0.04 | 0.04 | 51 | 1019.9 |
| 20260905122538 | 73 | 3 | 7.0 | 11.0 | 0.00 | 0.04 | 0.04 | 50 | 1019.8 |
| 20260905122038 | 73 | 348 | 6.0 | 11.0 | 0.00 | 0.04 | 0.04 | 51 | 1019.9 |
| 20260905121538 | 73 | 337 | 4.0 | 11.0 | 0.00 | 0.04 | 0.04 | 50 | 1020.0 |
| 20260905121038 | 74 | 332 | 2.0 | 11.0 | 0.00 | 0.04 | 0.04 | 49 | 1019.9 |
| 20260905120538 | 74 | 66 | 5.0 | 11.0 | 0.00 | 0.04 | 0.04 | 47 | 1019.7 |
| 20260905120037 | 74 | 1 | 7.0 | 10.0 | 0.00 | 0.04 | 0.04 | 49 | 1019.8 |
| 20260905115527 | 74 | 9 | 5.0 | 6.0 | 0.00 | 0.04 | 0.04 | 48 | 1020.1 |
| 20260905115027 | 74 | 39 | 8.0 | 13.0 | 0.00 | 0.04 | 0.04 | 47 | 1019.9 |
| 20260905114518 | 74 | 351 | 6.0 | 7.0 | 0.00 | 0.04 | 0.04 | 51 | 1020.0 |
| 20260905114008 | 73 | 291 | 4.0 | 6.0 | 0.00 | 0.04 | 0.04 | 55 | 1020.3 |
| 20260905113458 | 71 | 335 | 5.0 | 6.0 | 0.00 | 0.04 | 0.04 | 57 | 1020.3 |
| 20260905112958 | 71 | 275 | 6.0 | 9.0 | 0.00 | 0.04 | 0.04 | 57 | 1020.5 |
| 20260905112448 | 72 | 261 | 6.0 | 7.0 | 0.00 | 0.04 | 0.04 | 54 | 1020.3 |
| 20260905111948 | 71 | 353 | 2.0 | 5.0 | 0.00 | 0.04 | 0.04 | 61 | 1020.6 |
| 20260905111448 | 70 | 275 | 2.0 | 4.0 | 0.00 | 0.04 | 0.04 | 62 | 1020.8 |
| 20260905110948 | 69 | 228 | 2.0 | 3.0 | 0.00 | 0.04 | 0.04 | 60 | 1020.7 |
| 20260905110448 | 69 | 301 | 3.0 | 6.0 | 0.00 | 0.04 | 0.04 | 67 | 1021.0 |
| 20260905105947 | 67 | 348 | 0.0 | 6.0 | 0.00 | 0.04 | 0.04 | 69 | 1021.2 |
| 20260905105447 | 68 | 301 | 1.0 | 4.0 | 0.00 | 0.04 | 0.04 | 67 | 1021.0 |
| 20260905104947 | 67 | 32 | 1.0 | 3.0 | 0.00 | 0.04 | 0.04 | 68 | 1021.1 |
| 20260905104438 | 67 | 261 | 1.0 | 3.0 | 0.00 | 0.04 | 0.04 | 67 | 1021.0 |
| 20260905103938 | 67 | 320 | 4.0 | 4.0 | 0.00 | 0.04 | 0.04 | 68 | 1020.9 |
| 20260905103438 | 66 | 311 | 4.0 | 5.0 | 0.00 | 0.04 | 0.04 | 70 | 1021.1 |
| 20260905102928 | 66 | 202 | 2.0 | 5.0 | 0.00 | 0.04 | 0.04 | 70 | 1021.1 |
| 20260905102418 | 65 | 239 | 2.0 | 3.0 | 0.00 | 0.04 | 0.04 | 68 | 1021.3 |
| 20260905101918 | 65 | 123 | 3.0 | 4.0 | 0.00 | 0.04 | 0.04 | 70 | 1021.3 |
| 20260905101418 | 64 | 167 | 3.0 | 5.0 | 0.00 | 0.04 | 0.04 | 71 | 1021.6 |
| 20260905100918 | 64 | 152 | 4.0 | 5.0 | 0.00 | 0.04 | 0.04 | 74 | 1021.5 |
| 20260905100418 | 64 | 180 | 2.0 | 5.0 | 0.00 | 0.04 | 0.04 | 73 | 1021.4 |
| 20260905095917 | 62 | 91 | 1.0 | 3.0 | 0.00 | 0.04 | 0.04 | 75 | 1021.6 |
| 20260905095417 | 62 | 211 | 3.0 | 4.0 | 0.00 | 0.04 | 0.04 | 75 | 1021.8 |
| 20260905094917 | 62 | 148 | 1.0 | 3.0 | 0.00 | 0.04 | 0.04 | 74 | 1021.9 |
| 20260905094408 | 62 | 123 | 2.0 | 3.0 | 0.00 | 0.04 | 0.04 | 76 | 1021.9 |
| 20260905093908 | 62 | 156 | 0.0 | 2.0 | 0.00 | 0.04 | 0.04 | 77 | 1022.1 |
| 20260905093408 | 61 | 178 | 3.0 | 5.0 | 0.00 | 0.04 | 0.04 | 78 | 1021.9 |
| 20260905092858 | 60 | 187 | 0.0 | 2.0 | 0.00 | 0.04 | 0.04 | 81 | 1022.2 |
| 20260905092358 | 61 | 248 | 4.0 | 4.0 | 0.00 | 0.04 | 0.04 | 79 | 1022.0 |
| 20260905091848 | 61 | 239 | 1.0 | 3.0 | 0.00 | 0.04 | 0.04 | 79 | 1022.0 |
| 20260905091338 | 61 | 302 | 2.0 | 3.0 | 0.00 | 0.04 | 0.04 | 80 | 1021.8 |
| 20260905090838 | 61 | 89 | 0.0 | 6.0 | 0.00 | 0.04 | 0.04 | 80 | 1021.9 |
| 20260905090337 | 61 | 15 | 2.0 | 4.0 | 0.01 | 0.04 | 0.04 | 79 | 1021.9 |
| 20260905085837 | 61 | 315 | 2.0 | 4.0 | 0.01 | 0.04 | 0.04 | 80 | 1022.0 |
| 20260905085337 | 61 | 257 | 5.0 | 6.0 | 0.03 | 0.04 | 0.04 | 80 | 1021.6 |
| 20260905084837 | 61 | 311 | 3.0 | 9.0 | 0.03 | 0.04 | 0.04 | 80 | 1021.7 |
| 20260905084328 | 61 | 293 | 6.0 | 6.0 | 0.03 | 0.04 | 0.04 | 80 | 1021.7 |
| 20260905083828 | 60 | 295 | 6.0 | 7.0 | 0.03 | 0.04 | 0.04 | 82 | 1021.4 |
| 20260905083328 | 60 | 295 | 8.0 | 8.0 | 0.03 | 0.04 | 0.04 | 82 | 1021.6 |
| 20260905082828 | 61 | 285 | 8.0 | 10.0 | 0.03 | 0.04 | 0.04 | 80 | 1021.2 |
| 20260905082328 | 61 | 313 | 6.0 | 9.0 | 0.03 | 0.04 | 0.04 | 79 | 1021.1 |
| 20260905081818 | 61 | 289 | 9.0 | 14.0 | 0.03 | 0.04 | 0.04 | 79 | 1021.1 |
| 20260905081318 | 61 | 287 | 8.0 | 15.0 | 0.03 | 0.04 | 0.04 | 81 | 1021.0 |
| 20260905080808 | 61 | 291 | 12.0 | 14.0 | 0.03 | 0.04 | 0.04 | 80 | 1021.0 |
| 20260905080307 | 60 | 326 | 8.0 | 12.0 | 0.02 | 0.03 | 0.03 | 82 | 1021.0 |
| 20260905075807 | 61 | 275 | 9.0 | 13.0 | 0.02 | 0.03 | 0.03 | 82 | 1020.8 |
| 20260905075257 | 62 | 335 | 8.0 | 17.0 | 0.00 | 0.01 | 0.01 | 78 | 1020.9 |
| 20260905074747 | 63 | 328 | 6.0 | 15.0 | 0.00 | 0.01 | 0.01 | 72 | 1020.7 |
| 20260905074248 | 64 | 314 | 7.0 | 14.0 | 0.00 | 0.01 | 0.01 | 67 | 1020.2 |
| 20260905073747 | 65 | 291 | 16.0 | 16.0 | 0.00 | 0.01 | 0.01 | 67 | 1019.8 |
| 20260905073237 | 65 | 355 | 5.0 | 10.0 | 0.00 | 0.01 | 0.01 | 69 | 1019.6 |
| 20260905072737 | 65 | 317 | 8.0 | 11.0 | 0.00 | 0.01 | 0.01 | 70 | 1019.4 |
| 20260905072238 | 65 | 324 | 5.0 | 14.0 | 0.00 | 0.01 | 0.01 | 69 | 1019.2 |